Weather History for KMUO - February, 2014

Change the Weather History Date:

Wednesday, February 26, 2014

  Actual Average Record
Temperature  
Mean Temperature 47 °F 38 °F  
Max Temperature 60 °F 49 °F 70 °F (1986)
Min Temperature 33 °F 26 °F 8 °F (1993)
Degree Days  
Heating Degree Days 18 27  
Month to date heating degree days 668 788  
Cooling Degree Days 0 0  
Month to date cooling degree days 0 0  
Moisture  
Dew Point 25 °F    
Average Humidity 49    
Maximum Humidity 83    
Minimum Humidity 28    
Precipitation  
Precipitation 0.00 in 0.03 in 0.45 in (1957)
Month to date precipitation 0.53 0.79  
Sea Level Pressure  
Sea Level Pressure 29.95 in    
Wind  
Wind Speed 13 mph (ESE)    
Max Wind Speed 21 mph    
Max Gust Speed 25 mph    
Visibility 10 miles    
Events      
T = Trace of Precipitation, MM = Missing Value Source: NWS Daily Summary

Daily Weather History Graph

Daily Weather History Graph

Search for Another Location

Airport or City:

Trip Planner

Search our weather history database for the weather conditions in past years. The results will help you decide how hot, cold, wet, or windy it might be!

Date:

Astronomy

Feb. 26, 2014 Rise Set
Actual Time 7:24 AM MST 6:29 PM MST
Civil Twilight 6:55 AM MST 6:57 PM MST
Nautical Twilight 6:22 AM MST 7:30 PM MST
Astronomical Twilight 5:49 AM MST 8:03 PM MST
Moon 5:17 AM MST (2/26) 3:46 PM MST (2/26)
Length of Visible Light 12h 02m
Length of Day
11h 04m
Waning Crescent, 9% of the Moon is Illuminated
Feb 26
Waning Crescent
Mar 1
New
Mar 8
First Quarter
Mar 16
Full
Mar 23
Last Quarter

Hourly Weather History & Observations

Time (MST) Temp. Windchill Dew Point Humidity Pressure Visibility Wind Dir Wind Speed Gust Speed Precip Events Conditions
12:58 AM 40.1 °F 32.0 °F 23.2 °F 51% 30.06 in 10.0 mi East 15.0 mph - N/A   Clear
1:58 AM 38.5 °F 30.7 °F 21.9 °F 51% 30.07 in 10.0 mi ESE 12.7 mph - N/A   Clear
2:58 AM 38.3 °F 30.1 °F 18.1 °F 44% 30.06 in 10.0 mi ESE 13.8 mph - N/A   Clear
3:58 AM 36.7 °F 28.0 °F 18.0 °F 47% 30.04 in 10.0 mi ESE 13.8 mph - N/A   Clear
4:58 AM 34.7 °F 27.5 °F 18.5 °F 52% 30.04 in 10.0 mi SE 9.2 mph - N/A   Clear
5:58 AM 34.0 °F 24.6 °F 19.4 °F 55% 30.04 in 10.0 mi ESE 13.8 mph - N/A   Clear
6:58 AM 33.4 °F 23.9 °F 20.1 °F 58% 30.06 in 10.0 mi East 13.8 mph - N/A   Partly Cloudy
7:58 AM 34.2 °F 24.8 °F 20.8 °F 58% 30.06 in 10.0 mi East 13.8 mph - N/A   Mostly Cloudy
8:58 AM 38.8 °F 28.8 °F 19.4 °F 46% 30.06 in 10.0 mi ESE 20.7 mph 25.3 mph N/A   Mostly Cloudy
9:58 AM 42.1 °F 33.1 °F 20.5 °F 42% 30.05 in 10.0 mi ESE 20.7 mph - N/A   Mostly Cloudy
11:58 AM 49.5 °F - 20.8 °F 32% 30.01 in 10.0 mi SE 19.6 mph - N/A   Clear
12:58 PM 52.7 °F - 22.1 °F 30% 29.98 in 10.0 mi SE 13.8 mph - N/A   Partly Cloudy
1:58 PM 56.1 °F - 23.7 °F 29% 29.94 in 10.0 mi ESE 12.7 mph 20.7 mph N/A   Clear
2:58 PM 58.3 °F - 25.5 °F 28% 29.89 in 10.0 mi SE 13.8 mph - N/A   Mostly Cloudy
3:58 PM 59.5 °F - 26.8 °F 29% 29.87 in 10.0 mi SE 16.1 mph - N/A   Mostly Cloudy
4:58 PM 59.5 °F - 27.9 °F 30% 29.85 in 10.0 mi ESE 10.4 mph - N/A   Scattered Clouds
5:58 PM 58.1 °F - 29.1 °F 33% 29.84 in 10.0 mi SSE 8.1 mph - N/A   Scattered Clouds
6:58 PM 48.9 °F - 29.7 °F 47% 29.85 in 10.0 mi ESE 5.8 mph - N/A   Scattered Clouds
7:58 PM 45.9 °F - 30.0 °F 54% 29.83 in 10.0 mi East 1.2 mph - N/A   Scattered Clouds
8:58 PM 43.7 °F - 34.0 °F 69% 29.81 in 10.0 mi Variable 1.2 mph - N/A   Clear
9:58 PM 42.4 °F 39.6 °F 36.1 °F 78% 29.80 in 10.0 mi ENE 4.6 mph - N/A   Partly Cloudy
10:58 PM 42.3 °F - 37.4 °F 83% 29.78 in 10.0 mi SE 2.3 mph - N/A   Mostly Cloudy
11:58 PM 42.1 °F 40.2 °F 36.9 °F 82% 29.75 in 10.0 mi ESE 3.5 mph - N/A   Mostly Cloudy